Weather History for KETC - May, 2014

Change the Weather History Date:

Friday, May 16, 2014

  Actual Average Record
Temperature  
Mean Temperature 67 °F -  
Max Temperature 92 °F 81 °F 95 °F (1962)
Min Temperature 58 °F 54 °F 42 °F (1977)
Cooling Degree Days 2    
Growing Degree Days 17 (Base 50)    
Moisture  
Dew Point 60 °F    
Average Humidity 75    
Maximum Humidity 95    
Minimum Humidity 44    
Precipitation  
Precipitation 2.45 in - - ()
Sea Level Pressure  
Sea Level Pressure 29.89 in    
Wind  
Wind Speed 7 mph (West)    
Max Wind Speed 13 mph    
Max Gust Speed 20 mph    
Visibility 9 miles    
Events Rain    
Averages and records for this station are not official NWS values.
T = Trace of Precipitation, MM = Missing Value Source: NWS Daily Summary

Daily Weather History Graph

Daily Weather History Graph

Search for Another Location

Airport or City:

Trip Planner

Search our weather history database for the weather conditions in past years. The results will help you decide how hot, cold, wet, or windy it might be!

Date:

Astronomy

May. 16, 2014 Rise Set
Actual Time 6:03 AM EDT 8:09 PM EDT
Civil Twilight 5:35 AM EDT 8:38 PM EDT
Nautical Twilight 5:00 AM EDT 9:13 PM EDT
Astronomical Twilight 4:22 AM EDT 9:51 PM EDT
Moon 10:14 PM EDT (5/16) 7:43 AM EDT (5/16)
Length of Visible Light 15h 03m
Length of Day
14h 05m
Waning Gibbous, 95% of the Moon is Illuminated
May 16
Waning Gibbous
May 21
Last Quarter
May 28
New
Jun 5
First Quarter
Jun 13
Full

Hourly Weather History & Observations

Time (EDT) Temp. Dew Point Humidity Pressure Visibility Wind Dir Wind Speed Gust Speed Precip Events Conditions
12:15 AM 72.5 °F 68.9 °F 88% 29.91 in 10.0 mi SSE 8.1 mph - N/A   Light Drizzle
12:35 AM 72.7 °F 68.9 °F 88% 29.90 in 10.0 mi SSE 6.9 mph - N/A   Light Drizzle
12:55 AM 72.9 °F 68.9 °F 87% 29.90 in 10.0 mi SSE 9.2 mph 17.3 mph N/A   Overcast
1:15 AM 72.7 °F 68.9 °F 88% 29.89 in 10.0 mi SSE 6.9 mph - N/A   Light Drizzle
1:35 AM 72.3 °F 69.1 °F 89% 29.88 in 7.0 mi SE 8.1 mph - 0.03 in Rain Rain
2:15 AM 71.6 °F 69.1 °F 92% 29.88 in 3.0 mi SSE 11.5 mph 18.4 mph 0.16 in Rain Heavy Rain
2:35 AM 71.6 °F 68.9 °F 91% 29.86 in 4.0 mi SSE 12.7 mph 19.6 mph 0.29 in Rain Rain
2:55 AM 70.9 °F 68.4 °F 92% 29.84 in 1.8 mi SE 12.7 mph 17.3 mph 0.72 in Rain Heavy Rain
3:15 AM 70.5 °F 68.0 °F 92% 29.85 in 1.8 mi SW 4.6 mph - 0.30 in Rain Heavy Rain
3:35 AM 70.5 °F 68.2 °F 92% 29.83 in 2.5 mi SSW 11.5 mph 17.3 mph 0.75 in Rain Heavy Rain
3:55 AM 70.2 °F 67.8 °F 92% 29.83 in 2.0 mi SSE 5.8 mph - 1.30 in Rain Heavy Rain
4:15 AM 69.3 °F 67.1 °F 93% 29.83 in 5.0 mi South 4.6 mph - 0.08 in Rain Heavy Rain
4:35 AM 68.7 °F 66.4 °F 92% 29.83 in 5.0 mi South 6.9 mph - 0.14 in Rain Rain
4:55 AM 68.4 °F 66.4 °F 93% 29.83 in 3.0 mi SSE 6.9 mph - 0.30 in Rain Heavy Rain
5:15 AM 68.4 °F 66.4 °F 93% 29.82 in 7.0 mi Calm Calm - 0.05 in Rain Rain
5:35 AM 68.2 °F 66.4 °F 94% 29.82 in 10.0 mi Calm Calm - 0.07 in Rain Light Rain
5:55 AM 68.2 °F 66.4 °F 94% 29.83 in 10.0 mi Calm Calm - 0.08 in Rain Light Rain
6:15 AM 68.2 °F 66.6 °F 95% 29.83 in 10.0 mi Calm Calm - 0.01 in Rain Rain
6:35 AM 68.4 °F 66.6 °F 94% 29.83 in 10.0 mi Calm Calm - 0.01 in   Overcast
6:55 AM 68.0 °F 66.0 °F 93% 29.85 in 5.0 mi WNW 12.7 mph 17.3 mph 0.01 in   Overcast
7:15 AM 63.9 °F 61.3 °F 91% 29.85 in 5.0 mi NW 9.2 mph - N/A Rain Rain
7:35 AM 62.4 °F 60.1 °F 92% 29.86 in 3.0 mi WNW 8.1 mph - 0.01 in   Overcast
7:55 AM 62.1 °F 60.1 °F 93% 29.86 in 10.0 mi WNW 4.6 mph - 0.01 in   Overcast
8:15 AM 61.9 °F 59.5 °F 92% 29.86 in 10.0 mi West 10.4 mph - N/A   Overcast
8:35 AM 61.5 °F 59.0 °F 91% 29.87 in 10.0 mi West 10.4 mph - N/A   Overcast
8:55 AM 60.8 °F 58.3 °F 91% 29.88 in 10.0 mi WNW 6.9 mph - N/A   Overcast
9:15 AM 61.2 °F 58.5 °F 91% 29.88 in 10.0 mi WNW 6.9 mph - N/A   Overcast
9:35 AM 61.9 °F 58.8 °F 90% 29.89 in 10.0 mi WNW 8.1 mph - N/A   Overcast
9:55 AM 62.8 °F 59.0 °F 87% 29.90 in 10.0 mi West 8.1 mph - N/A   Overcast
10:15 AM 63.9 °F 58.8 °F 84% 29.90 in 10.0 mi WNW 8.1 mph - N/A   Overcast
10:35 AM 65.7 °F 59.4 °F 80% 29.91 in 10.0 mi West 8.1 mph - N/A   Overcast
10:55 AM 66.9 °F 58.5 °F 74% 29.91 in 10.0 mi WNW 8.1 mph - N/A   Mostly Cloudy
11:15 AM 67.8 °F 57.9 °F 71% 29.91 in 10.0 mi West 9.2 mph - N/A   Mostly Cloudy
11:35 AM 68.9 °F 59.2 °F 71% 29.91 in 10.0 mi West 9.2 mph - N/A   Mostly Cloudy
11:55 AM 69.4 °F 59.0 °F 69% 29.91 in 10.0 mi West 9.2 mph - N/A   Scattered Clouds
12:15 PM 70.2 °F 58.6 °F 67% 29.90 in 10.0 mi NW 8.1 mph - N/A   Clear
12:35 PM 71.4 °F 58.6 °F 64% 29.90 in 10.0 mi WNW 8.1 mph - N/A   Clear
12:55 PM 72.5 °F 58.6 °F 62% 29.90 in 10.0 mi West 10.4 mph 16.1 mph N/A   Clear
1:15 PM 73.2 °F 58.8 °F 61% 29.90 in 10.0 mi West 11.5 mph - N/A   Scattered Clouds
1:35 PM 73.8 °F 57.0 °F 56% 29.89 in 10.0 mi WNW 10.4 mph - N/A   Scattered Clouds
1:55 PM 73.6 °F 56.3 °F 55% 29.89 in 10.0 mi West 10.4 mph - N/A   Clear
2:15 PM 74.5 °F 56.5 °F 53% 29.88 in 10.0 mi West 8.1 mph - N/A   Scattered Clouds
2:35 PM 75.6 °F 56.7 °F 52% 29.88 in 10.0 mi WNW 9.2 mph - N/A   Mostly Cloudy
2:55 PM 76.1 °F 55.8 °F 49% 29.88 in 10.0 mi WNW 8.1 mph - N/A   Scattered Clouds
3:15 PM 76.1 °F 55.0 °F 48% 29.88 in 10.0 mi West 6.9 mph - N/A   Scattered Clouds
3:35 PM 76.3 °F 55.0 °F 48% 29.88 in 10.0 mi WNW 9.2 mph - N/A   Scattered Clouds
3:55 PM 76.6 °F 54.9 °F 47% 29.87 in 10.0 mi West 11.5 mph 19.6 mph N/A   Scattered Clouds
4:15 PM 76.5 °F 54.3 °F 46% 29.87 in 10.0 mi West 9.2 mph 16.1 mph N/A   Scattered Clouds
4:35 PM 76.3 °F 53.8 °F 45% 29.87 in 10.0 mi West 5.8 mph 11.5 mph N/A   Scattered Clouds
4:55 PM 76.1 °F 52.9 °F 44% 29.87 in 10.0 mi West 10.4 mph - N/A   Clear
5:15 PM 76.1 °F 53.1 °F 45% 29.87 in 10.0 mi WNW 8.1 mph - N/A   Clear
5:35 PM 75.7 °F 52.3 °F 44% 29.87 in 10.0 mi WNW 11.5 mph - N/A   Scattered Clouds
5:55 PM 75.2 °F 52.2 °F 44% 29.88 in 10.0 mi WSW 8.1 mph - N/A   Scattered Clouds
6:15 PM 73.6 °F 52.7 °F 48% 29.88 in 10.0 mi SW 5.8 mph - N/A   Scattered Clouds
6:35 PM 73.8 °F 53.1 °F 48% 29.88 in 10.0 mi WSW 6.9 mph - N/A   Mostly Cloudy
6:55 PM 73.4 °F 52.5 °F 48% 29.90 in 10.0 mi West 6.9 mph - N/A   Mostly Cloudy
7:15 PM 71.2 °F 53.1 °F 53% 29.91 in 10.0 mi WSW 4.6 mph - N/A   Mostly Cloudy
7:35 PM 70.0 °F 54.1 °F 57% 29.92 in 10.0 mi WSW 3.5 mph - N/A   Overcast
7:55 PM 69.3 °F 55.4 °F 61% 29.93 in 10.0 mi WSW 3.5 mph - N/A   Mostly Cloudy
8:15 PM 67.8 °F 55.8 °F 65% 29.94 in 10.0 mi West 3.5 mph - N/A   Mostly Cloudy
8:35 PM 66.6 °F 55.6 °F 68% 29.95 in 10.0 mi WNW 3.5 mph - N/A   Scattered Clouds
8:55 PM 64.8 °F 55.6 °F 72% 29.96 in 10.0 mi Calm Calm - N/A   Scattered Clouds
9:15 PM 64.4 °F 55.4 °F 73% 29.97 in 10.0 mi Calm Calm - N/A   Mostly Cloudy
9:35 PM 63.0 °F 55.2 °F 76% 29.98 in 10.0 mi Calm Calm - N/A   Scattered Clouds
9:55 PM 61.5 °F 56.1 °F 82% 29.99 in 10.0 mi Calm Calm - N/A   Clear
10:15 PM 59.9 °F 57.2 °F 91% 29.99 in 10.0 mi Calm Calm - N/A   Clear
10:35 PM 59.2 °F 56.7 °F 91% 30.00 in 10.0 mi Calm Calm - N/A   Clear
10:55 PM 59.0 °F 56.5 °F 91% 30.00 in 10.0 mi Calm Calm - N/A   Clear
11:15 PM 58.1 °F 56.3 °F 94% 30.00 in 10.0 mi Calm Calm - N/A   Clear
11:35 PM 58.6 °F 54.7 °F 87% 30.00 in 10.0 mi Calm Calm - N/A   Clear
11:55 PM 59.0 °F 53.2 °F 81% 30.00 in 10.0 mi WSW 4.6 mph - N/A   Clear